This is the latest recevied weather packets stored in our database for station/object W6ORV. If no packets are shown the sender has not sent any weather packets the latest 1 day(s).
| Time | Temp. | Humidity | Pressure | Rain* | Wind** | Luminosity | Snow |
|---|---|---|---|---|---|---|---|
| 1778013161 | 18.33° C | 54% | 4300 hPa | 0 mm | 0.89 m/s, 262° | 405 W/m² | - |
| 1778012856 | 18.89° C | 54% | 4300.3 hPa | 0 mm | 2.68 m/s, 257° | 390 W/m² | - |
| 1778012552 | 18.89° C | 55% | 4300.1 hPa | 0 mm | 2.68 m/s, 315° | 369 W/m² | - |
| 1778012249 | 18.89° C | 55% | 4300.2 hPa | 0 mm | 0.45 m/s, 255° | 416 W/m² | - |
| 1778011947 | 19.44° C | 53% | 4300.2 hPa | 0 mm | 0.89 m/s, 261° | 476 W/m² | - |
| 1778011645 | 19.44° C | 53% | 4300.2 hPa | 0 mm | 1.34 m/s, 289° | 487 W/m² | - |
| 1778011342 | 19.44° C | 53% | 4300.2 hPa | 0 mm | 0 m/s | 690 W/m² | - |
| 1778011037 | 19.44° C | 53% | 4300.3 hPa | 0 mm | 0 m/s | 580 W/m² | - |
| 1778010735 | 18.89° C | 54% | 4300.1 hPa | 0 mm | 0 m/s | 546 W/m² | - |
| 1778010432 | 19.44° C | 56% | 4300.2 hPa | 0 mm | 0 m/s | 653 W/m² | - |
| 1778010129 | 17.78° C | 56% | 4300.5 hPa | 0 mm | 0 m/s | 1122 W/m² | - |
| 1778009824 | 18.33° C | 58% | 4300.4 hPa | 0 mm | 0 m/s | 704 W/m² | - |
| 1778009522 | 18.33° C | 57% | 4300.4 hPa | 0 mm | 0 m/s | 519 W/m² | - |
| 1778009221 | 18.33° C | 58% | 4300.3 hPa | 0 mm | 0 m/s | 612 W/m² | - |
| 1778008917 | 17.22° C | 59% | 4300.3 hPa | 0 mm | 0 m/s | 480 W/m² | - |
| 1778008616 | 17.78° C | 59% | 4300.4 hPa | 0 mm | 0 m/s | 429 W/m² | - |
| 1778008314 | 17.22° C | 59% | 4300.3 hPa | 0 mm | 0 m/s | 572 W/m² | - |
| 1778008009 | 17.22° C | 59% | 4300.2 hPa | 0 mm | 0 m/s | 640 W/m² | - |
| 1778007709 | 16.67° C | 60% | 4300.6 hPa | 0 mm | 0 m/s | 616 W/m² | - |
| 1778007406 | 16.67° C | 62% | 4300.5 hPa | 0 mm | 0 m/s | 370 W/m² | - |
| 1778007102 | 17.22° C | 59% | 4300.4 hPa | 0 mm | 0 m/s | 566 W/m² | - |
| 1778006799 | 17.22° C | 60% | 4300.3 hPa | 0 mm | 0 m/s | 478 W/m² | - |
| 1778006496 | 16.11° C | 61% | 4300.5 hPa | 0 mm | 0 m/s | 381 W/m² | - |
| 1778006193 | 16.67° C | 62% | 4300.5 hPa | 0 mm | 0 m/s | 271 W/m² | - |
| 1778005891 | 16.67° C | 61% | 4300.5 hPa | 0 mm | 0 m/s | 265 W/m² | - |
* Rain latest hour (hover to see other rain measurements)
** Current wind speed in m/s (hover to see current wind gust speed)